contact:dominique.lefevre@mio.osupytheas.fr, maurice.libes@osupytheas.fr, didier.mallarino@osupytheas.fr
Project:EMSO http://www.emso-fr.org/EMSO-France
Depth: 2436.0 m
Title:EMSO Ligure Ouest : Data MII capteur MICROCAT
DateTime_Computer,Latitude,Longitude,Temperature,Conductivity,Pressure,DateTime_Instrument
DateTime_Computer,Latitude,Longitude,degC,S m-1,dbar,DateTime_Instrument
2019-07-20T00:02:12Z,42.805,6.029,13.2991,4.60006,2469.984,2019-7-20T02:02:31Z
2019-07-20T00:05:16Z,42.805,6.029,13.2984,4.59999,2469.993,2019-7-20T02:05:34Z
2019-07-20T00:08:19Z,42.805,6.029,13.3004,4.59991,2469.97,2019-7-20T02:08:37Z
2019-07-20T00:11:22Z,42.805,6.029,13.2992,4.59999,2469.96,2019-7-20T02:11:41Z
2019-07-20T00:14:25Z,42.805,6.029,13.2989,4.59999,2469.984,2019-7-20T02:14:44Z
2019-07-20T00:17:28Z,42.805,6.029,13.2979,4.59992,2469.97,2019-7-20T02:17:47Z
2019-07-20T00:20:31Z,42.805,6.029,13.2985,4.59988,2469.984,2019-7-20T02:20:50Z
2019-07-20T00:23:35Z,42.805,6.029,13.2998,4.60011,2469.97,2019-7-20T02:23:53Z
2019-07-20T00:26:38Z,42.805,6.029,13.2986,4.59983,2469.947,2019-7-20T02:26:57Z
2019-07-20T00:29:41Z,42.805,6.029,13.2979,4.59996,2469.984,2019-7-20T02:30:00Z
2019-07-20T00:32:44Z,42.805,6.029,13.2996,4.60003,2469.984,2019-7-20T02:33:03Z
2019-07-20T00:35:47Z,42.805,6.029,13.2993,4.59989,2469.96,2019-7-20T02:36:06Z
2019-07-20T00:38:51Z,42.805,6.029,13.2999,4.59981,2469.97,2019-7-20T02:39:09Z
2019-07-20T00:41:54Z,42.805,6.029,13.2998,4.60001,2469.937,2019-7-20T02:42:12Z
2019-07-20T00:44:57Z,42.805,6.029,13.2988,4.59999,2469.914,2019-7-20T02:45:16Z
2019-07-20T00:48:00Z,42.805,6.029,13.2985,4.59999,2469.96,2019-7-20T02:48:19Z
2019-07-20T00:51:03Z,42.805,6.029,13.2991,4.60006,2469.923,2019-7-20T02:51:22Z
2019-07-20T00:54:07Z,42.805,6.029,13.2987,4.59999,2469.937,2019-7-20T02:54:25Z
2019-07-20T00:57:10Z,42.805,6.029,13.3003,4.60026,2469.96,2019-7-20T02:57:28Z
2019-07-20T01:00:13Z,42.805,6.029,13.2969,4.60013,2469.947,2019-7-20T03:00:32Z
2019-07-20T01:03:16Z,42.805,6.029,13.2987,4.59974,2469.923,2019-7-20T03:03:35Z
2019-07-20T01:06:19Z,42.805,6.029,13.2974,4.59969,2469.96,2019-7-20T03:06:38Z
2019-07-20T01:09:22Z,42.805,6.029,13.2970,4.59996,2469.947,2019-7-20T03:09:41Z
2019-07-20T01:12:26Z,42.805,6.029,13.2982,4.59972,2469.937,2019-7-20T03:12:44Z
2019-07-20T01:15:29Z,42.805,6.029,13.2984,4.59986,2469.96,2019-7-20T03:15:48Z
2019-07-20T01:18:32Z,42.805,6.029,13.2974,4.59996,2469.96,2019-7-20T03:18:51Z
2019-07-20T01:21:35Z,42.805,6.029,13.2990,4.59995,2469.947,2019-7-20T03:21:54Z
2019-07-20T01:24:39Z,42.805,6.029,13.2972,4.59996,2469.96,2019-7-20T03:24:57Z
2019-07-20T01:27:42Z,42.805,6.029,13.2976,4.59990,2469.9,2019-7-20T03:28:00Z
2019-07-20T01:30:45Z,42.805,6.029,13.2971,4.59981,2469.937,2019-7-20T03:31:04Z
2019-07-20T01:33:48Z,42.805,6.029,13.2979,4.59989,2469.914,2019-7-20T03:34:07Z
2019-07-20T01:36:52Z,42.805,6.029,13.2996,4.59981,2469.9,2019-7-20T03:37:10Z
2019-07-20T01:39:55Z,42.805,6.029,13.2973,4.59968,2469.937,2019-7-20T03:40:13Z
2019-07-20T01:42:58Z,42.805,6.029,13.2964,4.60000,2469.923,2019-7-20T03:43:17Z
2019-07-20T01:46:01Z,42.805,6.029,13.2978,4.59980,2469.937,2019-7-20T03:46:20Z
2019-07-20T01:49:04Z,42.805,6.029,13.2979,4.59975,2469.937,2019-7-20T03:49:23Z
2019-07-20T01:52:08Z,42.805,6.029,13.2983,4.59986,2469.923,2019-7-20T03:52:26Z
2019-07-20T01:55:11Z,42.805,6.029,13.2972,4.60016,2469.923,2019-7-20T03:55:29Z
2019-07-20T01:58:14Z,42.805,6.029,13.2996,4.59985,2469.876,2019-7-20T03:58:33Z
2019-07-20T02:01:17Z,42.805,6.029,13.3002,4.59999,2469.923,2019-7-20T04:01:36Z
2019-07-20T02:04:20Z,42.805,6.029,13.2997,4.59994,2469.923,2019-7-20T04:04:39Z
2019-07-20T02:07:24Z,42.805,6.029,13.2994,4.59999,2469.923,2019-7-20T04:07:42Z
2019-07-20T02:10:27Z,42.805,6.029,13.3000,4.59997,2469.923,2019-7-20T04:10:46Z
2019-07-20T02:13:30Z,42.805,6.029,13.2990,4.59979,2469.923,2019-7-20T04:13:49Z
2019-07-20T02:16:33Z,42.805,6.029,13.3009,4.59985,2469.937,2019-7-20T04:16:52Z
2019-07-20T02:19:36Z,42.805,6.029,13.2997,4.59980,2469.89,2019-7-20T04:19:55Z
2019-07-20T02:22:40Z,42.805,6.029,13.2982,4.59981,2469.937,2019-7-20T04:22:58Z
2019-07-20T02:25:43Z,42.805,6.029,13.2981,4.59987,2469.9,2019-7-20T04:26:02Z
2019-07-20T02:28:46Z,42.805,6.029,13.3017,4.59981,2469.923,2019-7-20T04:29:05Z
2019-07-20T02:31:50Z,42.805,6.029,13.2990,4.59986,2469.9,2019-7-20T04:32:08Z
2019-07-20T02:34:53Z,42.805,6.029,13.2990,4.60003,2469.923,2019-7-20T04:35:11Z
2019-07-20T02:37:56Z,42.805,6.029,13.3006,4.59978,2469.9,2019-7-20T04:38:15Z
2019-07-20T02:40:59Z,42.805,6.029,13.2964,4.59969,2469.914,2019-7-20T04:41:18Z
2019-07-20T02:44:02Z,42.805,6.029,13.2972,4.59986,2469.9,2019-7-20T04:44:21Z
2019-07-20T02:47:05Z,42.805,6.029,13.2982,4.59974,2469.914,2019-7-20T04:47:24Z
2019-07-20T02:50:09Z,42.805,6.029,13.2979,4.59990,2469.923,2019-7-20T04:50:27Z
2019-07-20T02:53:12Z,42.805,6.029,13.2983,4.60004,2469.89,2019-7-20T04:53:31Z
2019-07-20T02:56:15Z,42.805,6.029,13.2983,4.59984,2469.914,2019-7-20T04:56:34Z
2019-07-20T02:59:18Z,42.805,6.029,13.2979,4.59991,2469.914,2019-7-20T04:59:37Z
2019-07-20T03:02:21Z,42.805,6.029,13.2982,4.59991,2469.914,2019-7-20T05:02:40Z
2019-07-20T03:05:25Z,42.805,6.029,13.2980,4.59973,2469.914,2019-7-20T05:05:43Z
2019-07-20T03:08:28Z,42.805,6.029,13.2985,4.59976,2469.9,2019-7-20T05:08:46Z
2019-07-20T03:11:31Z,42.805,6.029,13.2982,4.59986,2469.89,2019-7-20T05:11:50Z
2019-07-20T03:14:34Z,42.805,6.029,13.2992,4.59986,2469.89,2019-7-20T05:14:53Z
2019-07-20T03:17:37Z,42.805,6.029,13.2993,4.59992,2469.914,2019-7-20T05:17:56Z
2019-07-20T03:20:41Z,42.805,6.029,13.2986,4.59989,2469.89,2019-7-20T05:20:59Z
2019-07-20T03:23:44Z,42.805,6.029,13.2985,4.59988,2469.853,2019-7-20T05:24:02Z
2019-07-20T03:26:47Z,42.805,6.029,13.2984,4.59991,2469.876,2019-7-20T05:27:06Z
2019-07-20T03:29:50Z,42.805,6.029,13.2993,4.59976,2469.876,2019-7-20T05:30:09Z
2019-07-20T03:32:53Z,42.805,6.029,13.2998,4.59991,2469.9,2019-7-20T05:33:12Z
2019-07-20T03:35:56Z,42.805,6.029,13.2992,4.59974,2469.876,2019-7-20T05:36:15Z
2019-07-20T03:39:00Z,42.805,6.029,13.2976,4.59987,2469.839,2019-7-20T05:39:18Z
2019-07-20T03:42:03Z,42.805,6.029,13.3009,4.59988,2469.914,2019-7-20T05:42:22Z
2019-07-20T03:45:06Z,42.805,6.029,13.2974,4.59974,2469.914,2019-7-20T05:45:25Z
2019-07-20T03:48:09Z,42.805,6.029,13.2997,4.59981,2469.876,2019-7-20T05:48:28Z
2019-07-20T03:51:13Z,42.805,6.029,13.2998,4.59978,2469.89,2019-7-20T05:51:31Z
2019-07-20T03:54:16Z,42.805,6.029,13.2987,4.59985,2469.853,2019-7-20T05:54:35Z
2019-07-20T03:57:19Z,42.805,6.029,13.2998,4.59986,2469.914,2019-7-20T05:57:38Z
2019-07-20T04:00:23Z,42.805,6.029,13.2982,4.59994,2469.89,2019-7-20T06:00:41Z
2019-07-20T04:03:26Z,42.805,6.029,13.2982,4.59981,2469.867,2019-7-20T06:03:44Z
2019-07-20T04:06:29Z,42.805,6.029,13.2978,4.59991,2469.89,2019-7-20T06:06:48Z
2019-07-20T04:09:32Z,42.805,6.029,13.2976,4.59976,2469.876,2019-7-20T06:09:51Z
2019-07-20T04:12:35Z,42.805,6.029,13.2975,4.59994,2469.853,2019-7-20T06:12:54Z
2019-07-20T04:15:39Z,42.805,6.029,13.2974,4.59991,2469.853,2019-7-20T06:15:57Z
2019-07-20T04:18:42Z,42.805,6.029,13.2986,4.59971,2469.89,2019-7-20T06:19:01Z
2019-07-20T04:21:45Z,42.805,6.029,13.2974,4.60007,2469.876,2019-7-20T06:22:04Z
2019-07-20T04:24:48Z,42.805,6.029,13.3019,4.59967,2469.853,2019-7-20T06:25:07Z
2019-07-20T04:27:52Z,42.805,6.029,13.2976,4.60003,2469.853,2019-7-20T06:28:10Z
2019-07-20T04:30:55Z,42.805,6.029,13.2971,4.59980,2469.914,2019-7-20T06:31:13Z
2019-07-20T04:33:58Z,42.805,6.029,13.2987,4.59983,2469.867,2019-7-20T06:34:17Z
2019-07-20T04:37:01Z,42.805,6.029,13.2978,4.59995,2469.9,2019-7-20T06:37:20Z
2019-07-20T04:40:04Z,42.805,6.029,13.3004,4.59980,2469.83,2019-7-20T06:40:23Z
2019-07-20T04:43:08Z,42.805,6.029,13.2988,4.59981,2469.853,2019-7-20T06:43:26Z
2019-07-20T04:46:11Z,42.805,6.029,13.2985,4.59991,2469.867,2019-7-20T06:46:29Z
2019-07-20T04:49:14Z,42.805,6.029,13.3017,4.59980,2469.853,2019-7-20T06:49:33Z
2019-07-20T04:52:17Z,42.805,6.029,13.3024,4.59986,2469.876,2019-7-20T06:52:36Z
2019-07-20T04:55:20Z,42.805,6.029,13.2997,4.59991,2469.89,2019-7-20T06:55:39Z
2019-07-20T04:58:24Z,42.805,6.029,13.2989,4.59983,2469.876,2019-7-20T06:58:42Z
2019-07-20T05:01:27Z,42.805,6.029,13.2988,4.59983,2469.876,2019-7-20T07:01:46Z
2019-07-20T05:04:30Z,42.805,6.029,13.2991,4.59987,2469.89,2019-7-20T07:04:49Z
2019-07-20T05:07:33Z,42.805,6.029,13.2983,4.59981,2469.867,2019-7-20T07:07:52Z
2019-07-20T05:10:36Z,42.805,6.029,13.2991,4.59986,2469.853,2019-7-20T07:10:55Z
2019-07-20T05:13:40Z,42.805,6.029,13.2983,4.59978,2469.853,2019-7-20T07:13:58Z
2019-07-20T05:16:43Z,42.805,6.029,13.2994,4.59996,2469.876,2019-7-20T07:17:01Z
2019-07-20T05:19:46Z,42.805,6.029,13.3004,4.59978,2469.89,2019-7-20T07:20:05Z
2019-07-20T05:22:49Z,42.805,6.029,13.2998,4.60003,2469.867,2019-7-20T07:23:08Z
2019-07-20T05:25:52Z,42.805,6.029,13.2993,4.59979,2469.876,2019-7-20T07:26:11Z
2019-07-20T05:28:56Z,42.805,6.029,13.2977,4.59976,2469.867,2019-7-20T07:29:14Z
2019-07-20T05:31:59Z,42.805,6.029,13.2979,4.59973,2469.876,2019-7-20T07:32:17Z
2019-07-20T05:35:02Z,42.805,6.029,13.2991,4.59978,2469.9,2019-7-20T07:35:21Z
2019-07-20T05:38:05Z,42.805,6.029,13.2988,4.59978,2469.876,2019-7-20T07:38:24Z
2019-07-20T05:41:08Z,42.805,6.029,13.2981,4.59976,2469.853,2019-7-20T07:41:27Z
2019-07-20T05:44:12Z,42.805,6.029,13.2979,4.59983,2469.9,2019-7-20T07:44:31Z
2019-07-20T05:47:15Z,42.805,6.029,13.2985,4.59984,2469.9,2019-7-20T07:47:34Z
2019-07-20T05:50:18Z,42.805,6.029,13.2990,4.59972,2469.914,2019-7-20T07:50:37Z
2019-07-20T05:53:21Z,42.805,6.029,13.2967,4.59971,2469.89,2019-7-20T07:53:40Z
2019-07-20T05:56:25Z,42.805,6.029,13.2983,4.59976,2469.914,2019-7-20T07:56:43Z
2019-07-20T05:59:28Z,42.805,6.029,13.2981,4.59981,2469.914,2019-7-20T07:59:47Z
2019-07-20T06:02:31Z,42.805,6.029,13.2983,4.59980,2469.914,2019-7-20T08:02:50Z
2019-07-20T06:05:34Z,42.805,6.029,13.2983,4.59973,2469.89,2019-7-20T08:05:53Z
2019-07-20T06:08:37Z,42.805,6.029,13.2986,4.59981,2469.914,2019-7-20T08:08:56Z
2019-07-20T06:11:41Z,42.805,6.029,13.2983,4.59984,2469.937,2019-7-20T08:11:59Z
2019-07-20T06:14:44Z,42.805,6.029,13.2988,4.59973,2469.923,2019-7-20T08:15:03Z
2019-07-20T06:17:47Z,42.805,6.029,13.2993,4.59976,2469.9,2019-7-20T08:18:06Z
2019-07-20T06:20:50Z,42.805,6.029,13.2983,4.59996,2469.9,2019-7-20T08:21:09Z
2019-07-20T06:23:53Z,42.805,6.029,13.2991,4.59981,2469.89,2019-7-20T08:24:12Z
2019-07-20T06:26:57Z,42.805,6.029,13.2977,4.59968,2469.947,2019-7-20T08:27:15Z
2019-07-20T06:30:00Z,42.805,6.029,13.2976,4.59982,2469.937,2019-7-20T08:30:19Z
2019-07-20T06:33:03Z,42.805,6.029,13.2990,4.59978,2469.937,2019-7-20T08:33:22Z
2019-07-20T06:36:06Z,42.805,6.029,13.2996,4.59978,2469.937,2019-7-20T08:36:25Z
2019-07-20T06:39:10Z,42.805,6.029,13.2974,4.59982,2469.923,2019-7-20T08:39:28Z
2019-07-20T06:42:13Z,42.805,6.029,13.2976,4.59974,2469.947,2019-7-20T08:42:31Z
2019-07-20T06:45:16Z,42.805,6.029,13.2982,4.59977,2469.96,2019-7-20T08:45:35Z
2019-07-20T06:48:19Z,42.805,6.029,13.2986,4.59978,2469.876,2019-7-20T08:48:38Z
2019-07-20T06:51:22Z,42.805,6.029,13.2979,4.59982,2469.937,2019-7-20T08:51:41Z
2019-07-20T06:54:25Z,42.805,6.029,13.3000,4.59984,2469.97,2019-7-20T08:54:44Z
2019-07-20T06:57:29Z,42.805,6.029,13.2986,4.59967,2469.947,2019-7-20T08:57:47Z
2019-07-20T07:00:32Z,42.805,6.029,13.2978,4.59976,2469.947,2019-7-20T09:00:51Z
2019-07-20T07:03:35Z,42.805,6.029,13.2980,4.59984,2469.96,2019-7-20T09:03:54Z
2019-07-20T07:06:38Z,42.805,6.029,13.2975,4.59978,2469.96,2019-7-20T09:06:57Z
2019-07-20T07:09:41Z,42.805,6.029,13.2985,4.59983,2469.923,2019-7-20T09:10:00Z
2019-07-20T07:12:45Z,42.805,6.029,13.2987,4.59982,2469.947,2019-7-20T09:13:03Z
2019-07-20T07:15:48Z,42.805,6.029,13.2986,4.59983,2469.923,2019-7-20T09:16:07Z
2019-07-20T07:18:51Z,42.805,6.029,13.2984,4.59987,2469.96,2019-7-20T09:19:10Z
2019-07-20T07:21:54Z,42.805,6.029,13.2993,4.59985,2469.96,2019-7-20T09:22:13Z
2019-07-20T07:24:57Z,42.805,6.029,13.2991,4.59989,2469.947,2019-7-20T09:25:16Z
2019-07-20T07:28:01Z,42.805,6.029,13.2996,4.59988,2469.96,2019-7-20T09:28:19Z
2019-07-20T07:31:04Z,42.805,6.029,13.2990,4.59988,2469.984,2019-7-20T09:31:23Z
2019-07-20T07:34:07Z,42.805,6.029,13.2996,4.59981,2469.984,2019-7-20T09:34:26Z
2019-07-20T07:37:10Z,42.805,6.029,13.2990,4.59989,2469.97,2019-7-20T09:37:29Z
2019-07-20T07:40:13Z,42.805,6.029,13.3021,4.59984,2470.007,2019-7-20T09:40:32Z
2019-07-20T07:43:17Z,42.805,6.029,13.2980,4.59982,2469.937,2019-7-20T09:43:35Z
2019-07-20T07:46:20Z,42.805,6.029,13.2983,4.59981,2470.007,2019-7-20T09:46:39Z
2019-07-20T07:49:23Z,42.805,6.029,13.2993,4.59994,2469.947,2019-7-20T09:49:42Z
2019-07-20T07:52:26Z,42.805,6.029,13.3009,4.59982,2469.96,2019-7-20T09:52:45Z
2019-07-20T07:55:29Z,42.805,6.029,13.2991,4.59978,2469.97,2019-7-20T09:55:48Z
2019-07-20T07:58:33Z,42.805,6.029,13.2982,4.59991,2470.017,2019-7-20T09:58:51Z
2019-07-20T08:01:36Z,42.805,6.029,13.2997,4.59993,2469.947,2019-7-20T10:01:55Z
2019-07-20T08:04:39Z,42.805,6.029,13.2989,4.59985,2469.97,2019-7-20T10:04:58Z
2019-07-20T08:07:42Z,42.805,6.029,13.2986,4.59980,2469.97,2019-7-20T10:08:01Z
2019-07-20T08:10:46Z,42.805,6.029,13.2989,4.59988,2469.97,2019-7-20T10:11:04Z
2019-07-20T08:13:49Z,42.805,6.029,13.2975,4.59971,2469.984,2019-7-20T10:14:07Z
2019-07-20T08:16:52Z,42.805,6.029,13.2990,4.59978,2469.97,2019-7-20T10:17:11Z
2019-07-20T08:19:55Z,42.805,6.029,13.2983,4.59976,2469.96,2019-7-20T10:20:14Z
2019-07-20T08:22:58Z,42.805,6.029,13.2982,4.59973,2469.984,2019-7-20T10:23:17Z
2019-07-20T08:26:02Z,42.805,6.029,13.2997,4.59976,2469.947,2019-7-20T10:26:20Z
2019-07-20T08:29:05Z,42.805,6.029,13.2981,4.59975,2469.993,2019-7-20T10:29:24Z
2019-07-20T08:32:08Z,42.805,6.029,13.2976,4.59973,2469.97,2019-7-20T10:32:27Z
2019-07-20T08:35:11Z,42.805,6.029,13.2980,4.59971,2469.97,2019-7-20T10:35:30Z
2019-07-20T08:38:14Z,42.805,6.029,13.2980,4.59976,2469.984,2019-7-20T10:38:33Z
2019-07-20T08:41:18Z,42.805,6.029,13.2994,4.59984,2469.96,2019-7-20T10:41:36Z
2019-07-20T08:44:21Z,42.805,6.029,13.2982,4.59974,2469.97,2019-7-20T10:44:40Z
2019-07-20T08:47:24Z,42.805,6.029,13.2974,4.59978,2470.007,2019-7-20T10:47:43Z
2019-07-20T08:50:27Z,42.805,6.029,13.2979,4.59975,2469.96,2019-7-20T10:50:46Z
2019-07-20T08:53:30Z,42.805,6.029,13.2980,4.59973,2470.007,2019-7-20T10:53:49Z
2019-07-20T08:56:34Z,42.805,6.029,13.2986,4.59976,2470.007,2019-7-20T10:56:52Z
2019-07-20T08:59:37Z,42.805,6.029,13.2990,4.59982,2469.993,2019-7-20T10:59:56Z
2019-07-20T09:02:40Z,42.805,6.029,13.2984,4.59978,2469.984,2019-7-20T11:02:59Z
2019-07-20T09:05:43Z,42.805,6.029,13.2998,4.59978,2469.97,2019-7-20T11:06:02Z
2019-07-20T09:08:46Z,42.805,6.029,13.2981,4.59986,2469.993,2019-7-20T11:09:05Z
2019-07-20T09:11:50Z,42.805,6.029,13.2990,4.59986,2470.007,2019-7-20T11:12:08Z
2019-07-20T09:14:53Z,42.805,6.029,13.2984,4.59975,2469.984,2019-7-20T11:15:12Z
2019-07-20T09:17:56Z,42.805,6.029,13.2978,4.59979,2469.984,2019-7-20T11:18:15Z
2019-07-20T09:20:59Z,42.805,6.029,13.2984,4.59983,2469.984,2019-7-20T11:21:18Z
2019-07-20T09:24:02Z,42.805,6.029,13.2987,4.59981,2469.984,2019-7-20T11:24:21Z
2019-07-20T09:27:06Z,42.805,6.029,13.2993,4.59976,2469.993,2019-7-20T11:27:24Z
2019-07-20T09:30:09Z,42.805,6.029,13.2992,4.59976,2469.984,2019-7-20T11:30:28Z
2019-07-20T09:33:12Z,42.805,6.029,13.2979,4.59971,2470.017,2019-7-20T11:33:31Z
2019-07-20T09:36:15Z,42.805,6.029,13.2979,4.59980,2469.984,2019-7-20T11:36:34Z
2019-07-20T09:39:18Z,42.805,6.029,13.2988,4.59976,2469.97,2019-7-20T11:39:37Z
2019-07-20T09:42:22Z,42.805,6.029,13.2998,4.59976,2469.984,2019-7-20T11:42:40Z
2019-07-20T09:45:25Z,42.805,6.029,13.2982,4.59983,2469.97,2019-7-20T11:45:44Z
2019-07-20T09:48:28Z,42.805,6.029,13.2981,4.59976,2469.96,2019-7-20T11:48:47Z
2019-07-20T09:51:31Z,42.805,6.029,13.2991,4.59981,2469.984,2019-7-20T11:51:50Z
2019-07-20T09:54:34Z,42.805,6.029,13.2976,4.59975,2470.007,2019-7-20T11:54:53Z
2019-07-20T09:57:38Z,42.805,6.029,13.2974,4.59983,2469.97,2019-7-20T11:57:56Z
2019-07-20T10:00:41Z,42.805,6.029,13.2985,4.59977,2469.947,2019-7-20T12:01:00Z
2019-07-20T10:03:44Z,42.805,6.029,13.2990,4.59982,2469.947,2019-7-20T12:04:03Z
2019-07-20T10:06:47Z,42.805,6.029,13.3004,4.59983,2469.97,2019-7-20T12:07:06Z
2019-07-20T10:09:50Z,42.805,6.029,13.2990,4.59983,2469.97,2019-7-20T12:10:09Z
2019-07-20T10:12:54Z,42.805,6.029,13.2993,4.59984,2469.923,2019-7-20T12:13:12Z
2019-07-20T10:15:57Z,42.805,6.029,13.2983,4.59979,2469.947,2019-7-20T12:16:16Z
2019-07-20T10:19:00Z,42.805,6.029,13.2990,4.59976,2469.984,2019-7-20T12:19:19Z
2019-07-20T10:22:03Z,42.805,6.029,13.2982,4.59999,2469.923,2019-7-20T12:22:22Z
2019-07-20T10:25:07Z,42.805,6.029,13.2998,4.59988,2469.937,2019-7-20T12:25:26Z
2019-07-20T10:28:10Z,42.805,6.029,13.2982,4.59979,2469.947,2019-7-20T12:28:29Z
2019-07-20T10:31:13Z,42.805,6.029,13.2984,4.59995,2469.923,2019-7-20T12:31:32Z
2019-07-20T10:34:16Z,42.805,6.029,13.2986,4.59981,2469.96,2019-7-20T12:34:35Z
2019-07-20T10:37:20Z,42.805,6.029,13.2979,4.59969,2469.937,2019-7-20T12:37:38Z
2019-07-20T10:40:23Z,42.805,6.029,13.2979,4.59989,2469.937,2019-7-20T12:40:42Z
2019-07-20T10:43:26Z,42.805,6.029,13.2982,4.59981,2469.96,2019-7-20T12:43:45Z
2019-07-20T10:46:30Z,42.805,6.029,13.2976,4.59974,2469.947,2019-7-20T12:46:48Z
2019-07-20T10:49:33Z,42.805,6.029,13.2991,4.59983,2469.947,2019-7-20T12:49:51Z
2019-07-20T10:52:36Z,42.805,6.029,13.2971,4.59982,2469.937,2019-7-20T12:52:55Z
2019-07-20T10:55:39Z,42.805,6.029,13.2982,4.59982,2469.937,2019-7-20T12:55:58Z
2019-07-20T10:58:42Z,42.805,6.029,13.2995,4.59978,2469.923,2019-7-20T12:59:01Z
2019-07-20T11:01:46Z,42.805,6.029,13.2995,4.59978,2469.937,2019-7-20T13:02:04Z
2019-07-20T11:04:49Z,42.805,6.029,13.2985,4.59979,2469.937,2019-7-20T13:05:07Z
2019-07-20T11:07:52Z,42.805,6.029,13.3005,4.59984,2469.937,2019-7-20T13:08:11Z
2019-07-20T11:10:55Z,42.805,6.029,13.2990,4.59983,2469.937,2019-7-20T13:11:14Z
2019-07-20T11:13:58Z,42.805,6.029,13.2988,4.59978,2469.9,2019-7-20T13:14:17Z
2019-07-20T11:17:01Z,42.805,6.029,13.2990,4.59980,2469.937,2019-7-20T13:17:20Z
2019-07-20T11:20:05Z,42.805,6.029,13.2983,4.59978,2469.923,2019-7-20T13:20:23Z
2019-07-20T11:23:08Z,42.805,6.029,13.2992,4.59990,2469.937,2019-7-20T13:23:27Z
2019-07-20T11:26:11Z,42.805,6.029,13.2975,4.59986,2469.923,2019-7-20T13:26:30Z
2019-07-20T11:29:14Z,42.805,6.029,13.2992,4.59981,2469.914,2019-7-20T13:29:33Z
2019-07-20T11:32:18Z,42.805,6.029,13.2979,4.59978,2469.923,2019-7-20T13:32:36Z
2019-07-20T11:35:21Z,42.805,6.029,13.2982,4.59976,2469.937,2019-7-20T13:35:40Z
2019-07-20T11:38:24Z,42.805,6.029,13.2982,4.59980,2469.914,2019-7-20T13:38:43Z
2019-07-20T11:41:27Z,42.805,6.029,13.3000,4.59986,2469.914,2019-7-20T13:41:46Z
2019-07-20T11:44:31Z,42.805,6.029,13.2988,4.59974,2469.937,2019-7-20T13:44:49Z
2019-07-20T11:47:34Z,42.805,6.029,13.2998,4.59978,2469.914,2019-7-20T13:47:53Z
2019-07-20T11:50:37Z,42.805,6.029,13.3015,4.59988,2469.914,2019-7-20T13:50:56Z
2019-07-20T11:53:40Z,42.805,6.029,13.2990,4.59983,2469.89,2019-7-20T13:53:59Z
2019-07-20T11:56:43Z,42.805,6.029,13.2986,4.59981,2469.9,2019-7-20T13:57:02Z
2019-07-20T11:59:47Z,42.805,6.029,13.3003,4.59979,2469.89,2019-7-20T14:00:05Z
2019-07-20T12:02:50Z,42.805,6.029,13.2990,4.59983,2469.886,2019-7-20T14:03:09Z
2019-07-20T12:05:53Z,42.805,6.029,13.2986,4.59978,2469.937,2019-7-20T14:06:12Z
2019-07-20T12:08:56Z,42.805,6.029,13.2988,4.59982,2469.9,2019-7-20T14:09:15Z
2019-07-20T12:11:59Z,42.805,6.029,13.2986,4.59976,2469.89,2019-7-20T14:12:18Z
2019-07-20T12:15:03Z,42.805,6.029,13.2987,4.59982,2469.9,2019-7-20T14:15:21Z
2019-07-20T12:18:06Z,42.805,6.029,13.2995,4.59981,2469.89,2019-7-20T14:18:25Z
2019-07-20T12:21:09Z,42.805,6.029,13.2983,4.59979,2469.914,2019-7-20T14:21:28Z
2019-07-20T12:24:12Z,42.805,6.029,13.2989,4.59978,2469.83,2019-7-20T14:24:31Z
2019-07-20T12:27:16Z,42.805,6.029,13.2987,4.59975,2469.914,2019-7-20T14:27:35Z
2019-07-20T12:30:19Z,42.805,6.029,13.2987,4.59986,2469.914,2019-7-20T14:30:38Z
2019-07-20T12:33:22Z,42.805,6.029,13.3009,4.59988,2469.867,2019-7-20T14:33:41Z
2019-07-20T12:36:25Z,42.805,6.029,13.2986,4.59991,2469.867,2019-7-20T14:36:44Z
2019-07-20T12:39:29Z,42.805,6.029,13.2995,4.59990,2469.876,2019-7-20T14:39:47Z
2019-07-20T12:42:32Z,42.805,6.029,13.3004,4.59984,2469.89,2019-7-20T14:42:51Z
2019-07-20T12:45:35Z,42.805,6.029,13.2998,4.59981,2469.876,2019-7-20T14:45:54Z
2019-07-20T12:48:38Z,42.805,6.029,13.2991,4.59993,2469.914,2019-7-20T14:48:57Z
2019-07-20T12:51:41Z,42.805,6.029,13.3006,4.59979,2469.89,2019-7-20T14:52:00Z
2019-07-20T12:54:45Z,42.805,6.029,13.2986,4.59977,2469.914,2019-7-20T14:55:03Z
2019-07-20T12:57:48Z,42.805,6.029,13.2991,4.59981,2469.914,2019-7-20T14:58:07Z
2019-07-20T13:00:51Z,42.805,6.029,13.2983,4.59983,2469.876,2019-7-20T15:01:10Z
2019-07-20T13:03:54Z,42.805,6.029,13.2986,4.59978,2469.876,2019-7-20T15:04:13Z
2019-07-20T13:06:57Z,42.805,6.029,13.2979,4.59984,2469.89,2019-7-20T15:07:16Z
2019-07-20T13:10:01Z,42.805,6.029,13.2983,4.59986,2469.876,2019-7-20T15:10:19Z
2019-07-20T13:13:04Z,42.805,6.029,13.2985,4.59986,2469.89,2019-7-20T15:13:23Z
2019-07-20T13:16:07Z,42.805,6.029,13.3004,4.59981,2469.867,2019-7-20T15:16:26Z
2019-07-20T13:19:10Z,42.805,6.029,13.2987,4.59981,2469.89,2019-7-20T15:19:29Z
2019-07-20T13:22:13Z,42.805,6.029,13.2991,4.59986,2469.914,2019-7-20T15:22:32Z
2019-07-20T13:25:17Z,42.805,6.029,13.2998,4.59978,2469.853,2019-7-20T15:25:35Z
2019-07-20T13:28:20Z,42.805,6.029,13.2989,4.59978,2469.89,2019-7-20T15:28:39Z
2019-07-20T13:31:23Z,42.805,6.029,13.2989,4.59986,2469.9,2019-7-20T15:31:42Z
2019-07-20T13:34:26Z,42.805,6.029,13.2986,4.59993,2469.876,2019-7-20T15:34:45Z
2019-07-20T13:37:29Z,42.805,6.029,13.2997,4.59982,2469.914,2019-7-20T15:37:48Z
2019-07-20T13:40:33Z,42.805,6.029,13.2996,4.59983,2469.9,2019-7-20T15:40:51Z
2019-07-20T13:43:36Z,42.805,6.029,13.3003,4.59976,2469.839,2019-7-20T15:43:55Z
2019-07-20T13:46:39Z,42.805,6.029,13.2996,4.59984,2469.853,2019-7-20T15:46:58Z
2019-07-20T13:49:42Z,42.805,6.029,13.3006,4.59975,2469.914,2019-7-20T15:50:01Z
2019-07-20T13:52:46Z,42.805,6.029,13.3013,4.59995,2469.876,2019-7-20T15:53:04Z
2019-07-20T13:55:49Z,42.805,6.029,13.3002,4.59993,2469.923,2019-7-20T15:56:08Z
2019-07-20T13:58:52Z,42.805,6.029,13.2986,4.59987,2469.853,2019-7-20T15:59:11Z
2019-07-20T14:01:55Z,42.805,6.029,13.3012,4.59983,2469.853,2019-7-20T16:02:14Z
2019-07-20T14:04:58Z,42.805,6.029,13.3003,4.59985,2469.89,2019-7-20T16:05:17Z
2019-07-20T14:08:02Z,42.805,6.029,13.2996,4.59989,2469.853,2019-7-20T16:08:20Z
2019-07-20T14:11:05Z,42.805,6.029,13.2989,4.59991,2469.867,2019-7-20T16:11:23Z
2019-07-20T14:14:08Z,42.805,6.029,13.3003,4.59991,2469.867,2019-7-20T16:14:27Z
2019-07-20T14:17:11Z,42.805,6.029,13.2999,4.59993,2469.89,2019-7-20T16:17:30Z
2019-07-20T14:20:14Z,42.805,6.029,13.2999,4.59980,2469.867,2019-7-20T16:20:33Z
2019-07-20T14:23:18Z,42.805,6.029,13.2991,4.59988,2469.867,2019-7-20T16:23:36Z
2019-07-20T14:26:21Z,42.805,6.029,13.2998,4.59987,2469.853,2019-7-20T16:26:40Z
2019-07-20T14:29:24Z,42.805,6.029,13.2993,4.59989,2469.844,2019-7-20T16:29:43Z
2019-07-20T14:32:27Z,42.805,6.029,13.3011,4.59986,2469.853,2019-7-20T16:32:46Z
2019-07-20T14:35:31Z,42.805,6.029,13.3006,4.59991,2469.876,2019-7-20T16:35:49Z
2019-07-20T14:38:34Z,42.805,6.029,13.3011,4.59983,2469.83,2019-7-20T16:38:53Z
2019-07-20T14:41:37Z,42.805,6.029,13.2994,4.59991,2469.83,2019-7-20T16:41:56Z
2019-07-20T14:44:40Z,42.805,6.029,13.2998,4.59986,2469.867,2019-7-20T16:44:59Z
2019-07-20T14:47:43Z,42.805,6.029,13.3002,4.59983,2469.83,2019-7-20T16:48:02Z
2019-07-20T14:50:47Z,42.805,6.029,13.2988,4.59989,2469.844,2019-7-20T16:51:05Z
2019-07-20T14:53:50Z,42.805,6.029,13.2997,4.59985,2469.844,2019-7-20T16:54:09Z
2019-07-20T14:56:53Z,42.805,6.029,13.2996,4.59991,2469.876,2019-7-20T16:57:12Z
2019-07-20T14:59:56Z,42.805,6.029,13.2991,4.59996,2469.844,2019-7-20T17:00:15Z
2019-07-20T15:02:59Z,42.805,6.029,13.3014,4.59978,2469.83,2019-7-20T17:03:18Z
2019-07-20T15:06:03Z,42.805,6.029,13.3014,4.59996,2469.83,2019-7-20T17:06:21Z
2019-07-20T15:09:06Z,42.805,6.029,13.3006,4.59994,2469.83,2019-7-20T17:09:25Z
2019-07-20T15:12:09Z,42.805,6.029,13.3004,4.59986,2469.844,2019-7-20T17:12:28Z
2019-07-20T15:15:12Z,42.805,6.029,13.3019,4.59999,2469.844,2019-7-20T17:15:31Z